Preview of NWS' New Version of Forecast
This preview is not operational and should not be used for support decisions.

Regional Weather Roundup (RWR)

Issued by National Weather Service (NWS)

                            
000
ASCA42 TJSJ 212110
RWRPR 
PUERTO RICO/U.S. VIRGIN ISLANDS HOURLY WEATHER ROUNDUP
NATIONAL WEATHER SERVICE SAN JUAN PR
500 PM AST SUN JUL 21 2019

PRZ001>002-007>008-010-212200-
PUERTO RICO
  
CITY           SKY/WX    TMP DP  RH WIND       PRES   REMARKS
SAN JUAN LMM   MOSUNNY   88  75  66 NE17      29.98S HX  97           
AGUADILLA      PTSUNNY   82  73  74 SE3       30.00S                  
CEIBA          SUNNY     88  73  62 E8        30.00S HX  96           
$$

VIZ001>002-212200-
U.S. VIRGIN ISLANDS
  
CITY           SKY/WX    TMP DP  RH WIND       PRES   REMARKS
CHARLOTTE AMA  PTSUNNY   84  75  74 SE16      29.97F HX  92           
CHRISTIANSTED  MOSUNNY   84  72  65 E16       29.98F                  
$$

HOURLY WEATHER ROUNDUP FOR THE NEWS MEDIA
  
CITY           SKY/WX    TMP DP  RH WIND       PRES   REMARKS
ORLANDO        PTSUNNY   76  72  87 N6        30.05F THUNDER          
NEW YORK       FAIR      98  75  47 W15G24    29.76F HX 110           
NEWARK         PTSUNNY   98  71  41 W16       29.75F HX 106           
CHICAGO        PTSUNNY   76  61  59 N17       29.96R                  
HARTFORD       FAIR      93  75  55 W9        29.70S HX 104           
BOSTON         FAIR      97  66  36 W16       29.70R HX 100           
DALLAS         PTSUNNY   96  64  34 SE14      29.91F HX  98           
PHILADELPHIA   FAIR      98  73  44 W13       29.79F HX 108           
LOS ANGELES    MOSUNNY   71  60  68 W14       29.93F                  
WASHINGTON DC  PTSUNNY   98  73  44 SW13      29.85F HX 108